Orbital Elements at Epoch 2459200.5 (2020-Dec-17.0) TDB
Reference: JPL 20 (heliocentric ecliptic J2000)
Element | Value | Uncertainty (1-sigma) | Units |
e | .04149014094847374 | 3.8104e-08 | |
a | 3.072828363107399 | 1.9868e-08 | au |
q | 2.945336281211605 | 1.2446e-07 | au |
i | 1.473789018081122 | 4.5866e-06 | deg |
node | 314.1152601068786 | 0.00016283 | deg |
peri | 329.1053751264067 | 0.00017235 | deg |
M | 30.17199220036105 | 5.6489e-05 | deg |
tp | 2459035.605045518372 (2020-Jul-05.10504552) | 0.0003087 | TDB |
period | 1967.459862086128 5.39 | 1.9082e-05 5.224e-08 | d yr |
n | .1829770492081533 | 1.7746e-09 | deg/d |
Q | 3.200320445003193 | 2.0692e-08 | au |
|
| | Orbit Determination Parameters
Additional Information
|